Regional Weather Roundup
Issued by NWS

Home | Current Version | Previous Version | Text Only | Print | Product List | Glossary Off
Versions: 1 2 3 4 5 6 7 8 9 10 11 12 13 14 15 16 17 18 19 20 21 22 23 24 25 26 27 28 29 30 31 32 33 34 35 36 37 38 39 40 41 42 43 44 45 46 47 48 49 50

000
ASUS45 KPSR 040100
RWRAZ

ARIZONA HOURLY REGIONAL WEATHER ROUNDUP
NATIONAL WEATHER SERVICE PHOENIX AZ
600 PM MST MON AUG 03 2015

NOTE: FAIR INDICATES FEW OR NO CLOUDS BELOW 12,000 FEET WITH NO
SIGNIFICANT WEATHER AND/OR OBSTRUCTIONS TO VISIBILITY.

AZZ001>003-036-040200-
NORTHWEST ARIZONA

CITY           SKY/WX    TMP DP  RH WIND       PRES   REMARKS
KINGMAN        SUNNY     96  31  10 SW12G26   29.93F
$$

AZZ004>008-015-016-018-040200-
NORTH CENTRAL ARIZONA

CITY           SKY/WX    TMP DP  RH WIND       PRES   REMARKS
GRAND CANYON   MOSUNNY   82  36  19 W10G23    30.17F
PRESCOTT       FAIR      89  42  19 SW15      30.07F
FLAGSTAFF      NOT AVBL
PAYSON         SUNNY     90  43  19 SW6G15    30.09S
PAGE           MOSUNNY   93  40  15 VRB5      29.93F
$$

AZZ009>014-017-040200-
NORTHEAST ARIZONA

CITY           SKY/WX    TMP DP  RH WIND       PRES   REMARKS
WINSLOW        NOT AVBL
SAINT JOHNS    SUNNY     87  38  17 W8        30.10F
$$

AZZ023-040200-
GREATER PHOENIX AREA

CITY           SKY/WX    TMP DP  RH WIND       PRES   REMARKS
PHOENIX        MOSUNNY  108  43  11 W14       29.72F HX 103
GLENDALE       MOSUNNY  108  45  12 S8        29.74F HX 103
LUKE AFB       SUNNY    107  47  13 SW8       29.71F HX 103
DEER VALLEY    SUNNY    105  45  13 SW12G17   29.75F HX 101
SCOTTSDALE     SUNNY    106  41  11 W8        29.77F HX 100
MESA-FALCON    MOSUNNY  108  41  10 W14       29.75F HX 102
$$

AZZ027-028-040200-
SOUTHWEST MARICOPA COUNTY AND PINAL COUNTY

CITY           SKY/WX    TMP DP  RH WIND       PRES   REMARKS
CASA GRANDE    SUNNY    106  46  13 NW6       29.76S HX 102
$$

AZZ503-504-507>509-040200-
SOUTHEAST ARIZONA

CITY           SKY/WX    TMP DP  RH WIND       PRES   REMARKS
TUCSON         SUNNY    102  46  15 NW7       29.88S
DAVIS-MONTHAN  SUNNY    100  46  16 NW9       29.86F
NOGALES        MOSUNNY   86  60  41 SE6       30.00S
SIERRA VISTA   PTSUNNY   85  54  34 SW10      30.07R
SAFFORD        MOSUNNY  100  39  12 W16       29.86F
$$

AZZ020-021-025-026-031-040200-
SOUTHWEST ARIZONA

CITY           SKY/WX    TMP DP  RH WIND       PRES   REMARKS
YUMA           NOT AVBL
$$

CAZ031-033-041-043-047-048-061-040200-
SOUTHERN CALIFORNIA

CITY           SKY/WX    TMP DP  RH WIND       PRES   REMARKS
DOWNTOWN L.A.  SUNNY     77  62  59 VRB3      29.85F
L.A. AIRPORT   MOSUNNY   74  64  71 W14       29.87F
SAN DIEGO      MOSUNNY   75  63  66 W9        29.87F
BURBANK        SUNNY     83  61  47 S10       29.85F
ONTARIO        MOSUNNY   87  60  40 W15       29.85S
RIVERSIDE      SUNNY     87  60  40 W14       29.84S
PALM SPRINGS   SUNNY    107  46  13 NW17      29.70F HX 103
EL CENTRO NAS  MOSUNNY  111  44  10 SE13      29.65F HX 106
IMPERIAL       SUNNY    110  53  15 S10G17    29.63F HX 108
BLYTHE         PTSUNNY  111  40   9 S16       29.66F HX 105
$$

NVZ020-UTZ003-040200-
SOUTHERN NEVADA-UTAH

CITY           SKY/WX    TMP DP  RH WIND       PRES   REMARKS
LAS VEGAS      NOT AVBL
SALT LAKE CITY PTSUNNY   69  57  65 S3        30.08F
$$

NMZ009-TXZ055-040200-
NEW MEXICO-WEST TEXAS

CITY           SKY/WX    TMP DP  RH WIND       PRES   REMARKS
ALBUQUERQUE    MOSUNNY   88  42  20 NW13      30.08S
EL PASO        MOSUNNY   91  53  27 CALM      29.96S
$$


........................KEY........................
SKY/WX - SKY CONDITION/WEATHER
TMP    - TEMPERATURE IN FAHRENHEIT
DP     - DEW POINT IN FAHRENHEIT
RH     - RELATIVE HUMIDITY IN PERCENT
WIND   - DIRECTION AND SPEED IN MILES PER HOUR (MPH)
VRB    - VARIABLE WIND DIRECTION
PRES   - MEAN SEA LEVEL PRESSURE IN INCHES OF MERCURY
         F - FALLING PRESSURE   R - RISING PRESSURE
         S - STEADY PRESSURE
VSB    - VISIBILITY IN MILES
HX     - HEAT INDEX IN FAHRENHEIT
WCI    - WIND CHILL INDEX IN FAHRENHEIT
TC     - TEMPERATURE IN CELSIUS WHICH IS ALSO KNOWN AS
         TEMPERATURE IN CENTIGRADE
AFB    - AIR FORCE BASE
         LUKE AFB IS LUKE AIR FORCE BASE
         DAVIS-MONTHAN IS DAVIS-MONTHAN AIR FORCE BASE
NAS    - NAVAL AIR STATION
         EL CENTRO NAS IS EL CENTRO NAVAL AIR STATION
N/A    - NOT AVAILABLE




USA.gov is the U.S. government's official web portal to all federal, state and local government web resources and services.